Location: Starlight Observatory
(38.4029°N, 85.8936°W)
Time: 14:06:30
(UTC-05:00)

Daily predictions for brighter satellites

Satellite Brightness Start Highest point End
(mag) Time Altitude Azimuth Time Altitude Azimuth Time Altitude Azimuth
Atlas Centaur 2 3.3 17:44:29 10° WSW 17:49:39 34° S 17:53:50 10° ESE
Cosmos 1500 3.4 17:46:13 10° N 17:49:59 75° W 17:53:44 10° S
Meteor 1-4 Rocket 3.9 17:47:42 10° NNW 17:51:12 44° W 17:54:36 10° SSW
Cosmos 2219 3.2 17:45:43 10° NNW 17:51:19 68° ENE 17:56:55 10° SSE
Okean 1 3.3 17:48:15 10° S 17:52:13 89° W 17:56:12 10° N
Cosmos 1271 Rocket 3.3 17:52:27 10° N 17:55:56 34° ENE 17:59:26 10° SE
ATLAS 2AS CENTAUR R/B 3.1 17:50:20 10° SSW 17:58:01 84° ESE 18:06:11 10° NE
Cosmos 1655 Rocket 4.1 17:51:41 10° N 17:58:01 62° E 18:04:20 10° SSE
CORIOLIS 4.4 17:53:51 10° SE 17:59:03 50° ENE 18:04:15 10° N
ERS-2 3.8 17:58:40 10° E 18:00:37 14° ENE 18:02:35 10° NNE
Cosmos 2150 Rocket 4.3 17:58:57 10° SSW 18:04:25 77° WNW 18:09:53 10° NNE
Centaur D AC-28 4.2 18:00:20 10° WSW 18:04:59 41° SSE 18:24:49 10° ESE
ATLAS 3B R/B 3.0 17:58:47 10° NNW 18:05:03 41° NE 18:11:07 10° ESE
Cosmos 1484 Rocket 2.8 18:01:12 10° SSE 18:05:10 71° ENE 18:09:12 10° N
Cosmos 2026 Rocket 4.2 17:59:29 10° N 18:05:53 81° W 18:12:11 10° S
Cosmos 1975 2.9 18:05:42 10° N 18:09:45 83° W 18:13:48 10° S
Cosmos 158 Rocket 4.5 18:08:33 10° N 18:13:12 35° ENE 18:17:43 10° SE
USA 215 3.3 18:07:09 10° SE 18:13:42 87° SW 18:20:17 10° NW
Cosmos 2297 Rocket 2.8 18:09:04 10° N 18:14:12 34° ENE 18:19:18 10° SE
NOSS 3-4 (A) 4.5 18:14:42 10° SSE 18:19:47 27° ESE 18:23:50 14° ENE
AQUARIUS 4.2 18:15:24 10° SSE 18:19:53 89° WSW 18:24:25 10° NNW
NOSS 3-4 (C) 4.5 18:14:50 10° SSE 18:19:53 27° ESE 18:23:53 15° ENE
SPOT 3 Rocket 4.3 18:16:15 10° SE 18:20:38 29° ENE 18:25:01 10° N
CZ-2C R/B 3.8 18:16:48 10° NNE 18:21:29 69° ESE 18:26:11 10° S
Cosmos 1666 2.5 18:18:38 10° N 18:22:23 73° E 18:26:06 10° SSE
CZ-4 R/B 1.2 18:19:49 10° SSE 18:23:39 74° ENE 18:27:34 10° N
SMAP 3.3 18:21:58 10° S 18:26:36 74° WSW 18:31:16 10° NNW
Cosmos 1455 Rocket 3.0 18:23:03 10° N 18:27:29 77° E 18:31:52 10° S
Meteor 1-13 Rocket 4.2 18:22:36 10° S 18:28:09 80° E 18:33:50 10° NNE
Meteor 2-4 Rocket 3.6 18:23:16 10° S 18:28:38 61° E 18:33:56 10° NNE
Cosmos 1656 3.9 18:23:45 10° S 18:29:06 48° ESE 18:33:56 12° NE
Cosmos 1544 Rocket 3.5 18:27:07 10° N 18:31:29 87° W 18:35:48 10° S
NOSS 8 (A) 4.2 18:29:45 10° SSW 18:33:07 70° ESE 18:35:04 22° NE
YAOGAN 1 2.5 18:29:40 10° SSE 18:33:56 68° ENE 18:38:15 10° N
ALOS 2.6 18:34:36 10° SE 18:38:56 40° ENE 18:43:18 10° N
Delta 2 Rocket 4.4 18:35:18 10° W 18:40:48 59° S 18:44:52 15° ESE
Okean 2 4.3 18:38:23 10° SSE 18:41:51 27° E 18:42:24 26° ENE
Ariane Rocket 3.9 18:36:59 10° S 18:41:54 52° W 18:46:51 10° NNW
Cosmos 2369 3.6 18:38:20 10° SSW 18:43:58 77° ESE 18:49:14 12° NNE
USA 116 3.8 18:41:01 10° N 18:44:10 54° WNW 18:47:11 10° SSW
Cosmos 2278 3.6 18:39:44 10° SSW 18:45:22 75° ESE 18:50:28 13° NNE
Hubble Space Telescope 3.0 18:43:23 10° SW 18:46:22 19° S 18:49:22 10° SE
CENTAUR R/B 4.2 18:40:51 10° NNW 18:46:42 22° NE 18:48:45 20° ENE
Cosmos 1269 Rocket 4.2 18:43:33 10° N 18:48:39 46° ENE 18:53:43 10° SE
COSMO-SKYMED 1 2.5 18:45:55 10° NNE 18:50:17 82° E 18:54:37 10° S
Cosmos 1125 Rocket 3.5 18:47:55 10° SSW 18:53:14 88° WNW 18:58:12 12° NNE
EO 1 Del DPAF 3.1 18:56:30 19° NNE 18:59:10 87° ESE 19:02:58 10° SSW
FENGYUN 3A 3.5 18:54:54 10° SSE 19:00:13 66° ENE 19:05:32 10° N
SJ 16-02 1.5 18:56:02 10° SSW 19:00:24 74° WNW 19:03:46 17° NNE
Abrixas rocket 4.3 18:58:36 10° NW 19:00:44 16° N 19:00:55 16° N
Gbstr 26 Del rocket 4.4 18:54:32 10° SW 19:02:37 80° SE 19:06:47 29° NE
ISS -3.9 18:59:30 10° NW 19:02:48 87° SW 19:03:20 60° SE
NOAA 12 4.0 18:57:58 10° SSE 19:03:12 69° ENE 19:08:26 10° N
Cosmos 1048 Rocket 3.9 18:58:46 10° NNW 19:04:10 80° ENE 19:09:32 10° SSE
METEOR-M 4.5 19:01:05 10° S 19:06:21 66° WSW 19:11:42 10° NNW
USA 238 DEB 3.9 19:00:47 10° NW 19:07:55 81° WSW 19:15:07 10° SSE
USA 238 3.9 19:00:53 10° NW 19:08:02 82° WSW 19:15:13 10° SSE
Cosmos 1697 Rocket 2.6 19:02:39 10° SSW 19:08:15 70° ESE 19:11:14 29° NNE
Cosmos 1515 3.5 19:04:35 10° S 19:08:19 71° E 19:08:58 56° NE
Okean 1-7 Rocket 3.9 19:05:06 10° SSE 19:08:50 43° ESE 19:08:50 43° ESE
Meteor 2-11 Rocket 4.3 19:07:11 10° S 19:13:17 69° E 19:19:23 10° NNE
PSLV R/B 3.9 19:13:18 10° W 19:15:49 46° NW 19:15:49 46° NW
DELTA 2 R/B (1) 3.5 19:10:59 10° W 19:16:34 79° N 19:18:10 48° ENE
FengYun 1-2 T 4.4 19:12:24 10° SE 19:17:45 49° ENE 19:23:11 10° N
Cosmos 2082 3.8 19:12:24 10° NNW 19:18:02 77° WSW 19:23:38 10° SSE
Cosmos 1241 Rocket 4.4 19:15:07 10° SSW 19:21:31 85° ESE 19:24:29 34° NNE
Cosmos 1025 Rocket 3.0 19:23:13 10° S 19:27:31 82° W 19:28:22 57° N
Nadezhda 2 Rocket 4.4 19:22:22 10° N 19:28:43 88° E 19:35:07 10° S
Cosmos 2227 Rocket 3.2 19:25:55 10° NW 19:31:17 46° WSW 19:36:38 10° S
ERS-2 3.8 19:30:36 10° SSW 19:33:57 34° W 19:37:20 10° NNW
Atlas Centaur 2 3.4 19:34:18 10° WSW 19:37:51 21° SSW 19:38:54 19° S
NOSS 3-2 (A) 4.0 19:30:29 10° NNW 19:38:11 89° WSW 19:46:29 10° SSE
NOSS 3-2 (C) 3.9 19:36:51 10° NNW 19:44:31 79° ENE 19:48:55 31° SE
Cosmos 1066 Rocket 4.3 19:39:04 10° S 19:43:35 57° SSE 19:43:35 57° SSE
Cosmos 1980 Rocket 2.0 19:42:38 10° SSW 19:48:18 87° ESE 19:48:26 85° ENE
BREEZE-M DEB (TANK) 3.7 19:34:55 10° WNW 19:51:07 86° NNE 19:51:23 80° E
ATLAS 3B R/B 3.9 19:49:39 10° NW 19:55:36 37° WSW 20:01:26 10° S
Cosmos 2297 Rocket 3.9 19:53:12 10° NW 19:58:08 32° WSW 20:03:03 10° SSW
Cosmos 2344 4.4 19:54:22 10° S 19:59:02 33° SSE 19:59:02 33° SSE
S3M 4.4 20:03:21 10° S 20:07:52 52° S 20:07:52 52° S
NOSS 3-4 (A) 4.1 20:04:17 10° SW 20:10:17 49° NW 20:11:18 45° NNW
NOSS 3-4 (C) 4.1 20:04:22 10° SW 20:10:23 50° NW 20:11:22 46° NNW
Thor Agena Rocket 4.4 20:15:46 47° WSW 20:15:46 47° WSW 20:19:48 10° SSW
CENTAUR R/B 3.7 20:30:40 10° NNW 20:35:59 47° NNW 20:35:59 47° NNW
